Location: *
(28.3744°N, 81.5492°W)
Time: 04:08:01
(UTC+00:00)

Cosmos 1602 - Pass Details

Date: 15 June 2025
Orbit: 407 x 417 km, 82.5° (Epoch: 11 July)

Event Time Altitude Azimuth Distance (km) Brightness Sun altitude
Exits shadow 09:12:11 15° 175° (S) 1,230 5.3 -15.0°
Maximum altitude 09:14:46 65° 95° (E) 467 3.6 -14.6°
Drops below altitude 10° 09:18:01 10° 12° (NNE) 1,508 6.8 -14.0°
Sets 09:20:04 0° 10° (N) 2,375 7.8 -13.7°
